DW7572 Weather Reports


time (UTC)temp
F
wind
direction
speed
knots
gust
knots
rain 1hr
in
rain 24hr
in
rain mn
in
humidity
%
barometer
mb
20260905233517 80 135 4.3 7.8 0.00 0.00 0.00 87 1015.8
20260905232517 80 135 5.2 9.6 0.00 0.00 0.00 87 1015.7
20260905231517 80 158 5.2 8.7 0.00 0.00 0.00 88 1015.8
20260905230516 80 158 5.2 9.6 0.00 0.00 0.00 87 1015.6
20260905225516 80 135 6.1 8.7 0.00 0.00 0.00 87 1015.5
20260905224517 81 135 6.1 9.6 0.00 0.00 0.00 86 1015.5
20260905223517 81 135 6.1 9.6 0.00 0.00 0.00 86 1015.4
20260905222537 81 135 5.2 8.7 0.00 0.00 0.00 86 1015.4
20260905221516 82 135 3.5 7.8 0.00 0.00 0.00 84 1015.4
20260905220516 82 113 6.1 11.3 0.00 0.00 0.00 85 1015.3
20260905215517 81 113 6.1 8.7 0.00 0.00 0.00 85 1015.2
20260905214537 82 113 7.0 10.4 0.00 0.00 0.00 84 1015.0
20260905213516 82 113 6.1 10.4 0.00 0.00 0.00 86 1015.2
20260905212516 81 113 6.1 10.4 0.00 0.00 0.00 86 1015.0
20260905211536 81 113 6.1 9.6 0.00 0.00 0.00 86 1015.2
20260905210517 80 113 5.2 8.7 0.00 0.00 0.00 87 1015.4
20260905205516 80 113 5.2 11.3 0.00 0.00 0.00 87 1015.5
20260905204516 81 90 5.2 9.6 0.00 0.00 0.00 86 1015.3
20260905203536 81 90 7.0 10.4 0.00 0.00 0.00 85 1015.5
20260905202537 80 90 6.1 10.4 0.00 0.00 0.00 87 1015.4
20260905201516 80 90 7.8 12.2 0.00 0.00 0.00 86 1015.4
20260905200516 80 90 6.1 8.7 0.00 0.00 0.00 86 1015.5
20260905195517 80 90 6.1 9.6 0.00 0.00 0.00 87 1015.6
20260905194516 80 90 7.8 12.2 0.00 0.00 0.00 85 1015.3
20260905193537 80 90 7.8 11.3 0.00 0.00 0.00 85 1015.5
20260905192516 80 90 6.1 9.6 0.00 0.00 0.00 86 1015.5
20260905191537 79 90 7.8 13.0 0.00 0.00 0.00 86 1015.6
20260905190516 80 90 7.8 12.2 0.00 0.00 0.00 85 1015.6
20260905185516 79 68 7.8 11.3 0.00 0.00 0.00 87 1015.7
20260905184517 79 68 8.7 14.8 0.00 0.00 0.00 87 1015.6
20260905183517 78 45 2.6 7.0 0.00 0.00 0.00 88 1015.9
20260905182516 77 90 8.7 13.9 0.00 0.00 0.00 90 1015.6
20260905181516 76 68 6.1 10.4 0.00 0.00 0.00 91 1015.8
20260905180537 75 90 7.0 11.3 0.00 0.00 0.00 92 1016.1
20260905175516 75 68 7.0 10.4 0.00 0.00 0.00 93 1015.9
20260905174516 75 68 7.8 12.2 0.00 0.00 0.00 94 1015.9
20260905173516 74 68 7.0 10.4 0.00 0.00 0.00 95 1016.4
20260905172516 74 68 7.0 10.4 0.00 0.00 0.00 96 1016.6
20260905171517 73 68 9.6 13.0 0.00 0.00 0.00 96 1016.6
20260905170516 73 68 9.6 14.8 0.00 0.00 0.00 97 1016.8
20260905165516 72 68 7.8 12.2 0.00 0.00 0.00 97 1017.0
20260905164516 72 68 5.2 9.6 0.00 0.00 0.00 98 1016.9
20260905163516 72 90 5.2 7.8 0.00 0.00 0.00 98 1017.2
20260905162516 71 90 5.2 8.7 0.00 0.00 0.00 98 1017.1
20260905161516 71 113 4.3 8.7 0.00 0.00 0.00 98 1017.3
20260905160516 70 90 3.5 7.0 0.00 0.00 0.00 99 1017.3
20260905155516 70 113 3.5 7.0 0.00 0.00 0.00 99 1017.6
20260905154516 70 135 1.7 3.5 0.00 0.00 0.00 98 1017.8
20260905153516 69 135 1.7 3.5 0.00 0.00 0.00 99 1017.9
20260905152515 69 135 1.7 2.6 0.00 0.00 0.00 98 1017.9
20260905151515 69 23 1.7 3.5 0.00 0.00 0.00 98 1017.6
20260905150516 69 23 0.9 1.7 0.00 0.00 0.00 98 1017.4
20260905145515 69 0.0 1.7 0.00 0.00 0.00 98 1017.8
20260905144516 68 0.0 1.7 0.00 0.00 0.00 98 1017.7
20260905143515 69 23 1.7 3.5 0.00 0.00 0.00 98 1017.2
20260905142536 68 23 2.6 3.5 0.00 0.00 0.00 98 1017.0
20260905141536 68 23 2.6 3.5 0.00 0.00 0.00 98 1017.0
20260905140516 68 23 2.6 4.3 0.00 0.00 0.00 98 1017.0
20260905135516 68 68 0.9 2.6 0.00 0.00 0.00 98 1017.1
20260905134516 68 90 3.5 7.0 0.00 0.00 0.00 98 1016.6
20260905133515 68 90 3.5 7.0 0.00 0.00 0.00 98 1016.4
20260905132517 68 90 2.6 7.0 0.00 0.00 0.00 98 1016.4
20260905131517 68 90 3.5 7.0 0.00 0.00 0.00 98 1016.3
20260905130518 68 68 5.2 8.7 0.00 0.00 0.00 98 1016.3
20260905125517 68 68 3.5 5.2 0.00 0.00 0.00 98 1016.4
20260905124518 68 68 4.3 7.8 0.00 0.00 0.00 98 1016.4
20260905123517 67 45 3.5 4.3 0.00 0.00 0.00 98 1016.3
20260905122517 67 45 2.6 3.5 0.00 0.00 0.00 98 1016.5
20260905121538 67 45 2.6 3.5 0.00 0.00 0.00 98 1016.1
20260905120517 67 45 2.6 5.2 0.00 0.00 0.00 98 1015.6
20260905115518 67 68 2.6 5.2 0.00 0.00 0.00 98 1015.5
20260905114517 67 68 2.6 4.3 0.00 0.00 0.00 98 1015.6
20260905113517 67 68 2.6 4.3 0.00 0.00 0.00 98 1015.6
20260905112518 67 68 2.6 4.3 0.00 0.00 0.00 98 1015.7
20260905111518 67 68 1.7 2.6 0.00 0.00 0.00 98 1015.5
20260905110517 67 68 1.7 2.6 0.00 0.00 0.00 98 1015.5
20260905105517 67 68 2.6 4.3 0.00 0.00 0.00 98 1015.3
20260905104518 67 68 3.5 5.2 0.00 0.00 0.00 98 1015.1
20260905103517 67 68 3.5 4.3 0.00 0.00 0.00 98 1015.1
20260905102518 67 45 3.5 4.3 0.00 0.00 0.00 98 1015.1
20260905101517 67 68 2.6 4.3 0.00 0.00 0.00 97 1015.0
20260905100537 67 68 3.5 5.2 0.00 0.00 0.00 97 1015.0
20260905095517 67 68 1.7 2.6 0.00 0.00 0.00 97 1015.0
20260905094517 67 68 1.7 2.6 0.00 0.00 0.00 97 1015.0
20260905093542 67 0.0 0.0 0.00 0.00 0.00 97 1015.2
20260905092537 67 68 0.9 2.6 0.00 0.00 0.00 97 1015.1
20260905091518 67 68 1.7 3.5 0.00 0.00 0.00 97 1014.8
20260905090517 68 68 2.6 5.2 0.00 0.00 0.00 97 1014.8
20260905085517 68 68 2.6 4.3 0.00 0.00 0.00 97 1014.4
20260905084516 68 68 2.6 4.3 0.00 0.00 0.00 97 1014.6
20260905083517 68 68 3.5 6.1 0.00 0.00 0.00 96 1014.8
20260905082517 69 68 3.5 5.2 0.00 0.00 0.00 96 1015.0
20260905081517 69 68 2.6 5.2 0.00 0.00 0.00 96 1015.3
20260905080516 69 68 3.5 5.2 0.00 0.00 0.00 96 1015.2
20260905075537 69 45 3.5 5.2 0.00 0.00 0.00 96 1015.2
20260905074517 69 45 4.3 5.2 0.00 0.00 0.00 96 1015.1
20260905073537 70 45 4.3 6.1 0.00 0.00 0.00 96 1015.3
20260905072517 70 68 4.3 7.0 0.00 0.00 0.00 96 1015.3
20260905071516 70 68 4.3 7.0 0.00 0.00 0.00 96 1015.1
20260905070517 70 68 4.3 7.0 0.00 0.00 0.00 95 1015.2
20260905065517 70 68 4.3 7.8 0.00 0.00 0.00 96 1015.2
20260905064516 70 68 4.3 6.1 0.00 0.00 0.00 95 1015.1
20260905063517 71 68 2.6 4.3 0.00 0.00 0.00 95 1015.2
20260905062517 71 68 4.3 7.0 0.00 0.00 0.00 95 1015.2
20260905061521 71 68 3.5 5.2 0.00 0.00 0.00 95 1015.1
20260905060517 71 45 3.5 5.2 0.00 0.00 0.00 95 1015.1
20260905055516 71 68 4.3 6.1 0.00 0.00 0.00 95 1015.1
20260905054516 71 68 3.5 5.2 0.00 0.00 0.00 95 1015.0
20260905053517 71 68 2.6 3.5 0.00 0.00 0.00 95 1014.9
20260905052516 71 68 2.6 3.5 0.00 0.00 0.00 95 1014.9
20260905051557 72 68 1.7 3.5 0.00 0.00 0.00 95 1014.7
20260905050516 72 68 2.6 6.1 0.00 0.00 0.00 95 1014.6
20260905045517 72 90 2.6 4.3 0.00 0.00 0.00 95 1014.6
20260905044517 72 68 2.6 4.3 0.00 0.00 0.00 95 1014.7
20260905043538 72 68 2.6 3.5 0.00 0.00 0.00 95 1014.6
20260905042517 72 68 0.9 2.6 0.00 0.00 0.00 95 1014.7
20260905041517 72 68 1.7 3.5 0.00 0.00 0.00 95 1014.8
20260905040518 72 68 1.7 3.5 0.00 0.00 0.00 95 1014.8
20260905035517 73 68 0.9 1.7 0.00 0.00 0.00 95 1014.7
20260905034517 73 68 0.9 1.7 0.00 0.00 0.00 95 1014.7
20260905033518 73 68 1.7 3.5 0.00 0.00 0.00 95 1014.6
20260905032517 73 68 2.6 4.3 0.00 0.00 0.00 95 1014.4
20260905031517 73 68 1.7 3.5 0.00 0.00 0.00 95 1014.4
20260905030518 73 68 1.7 2.6 0.00 0.00 0.00 94 1014.4
20260905025658 73 68 1.7 3.5 0.00 0.00 0.00 94 1014.3
20260905024518 74 68 2.6 5.2 0.00 0.00 0.00 94 1013.9
20260905023517 74 68 3.5 4.3 0.00 0.00 0.00 93 1014.0
20260905022518 74 45 1.7 4.3 0.00 0.00 0.00 93 1013.9
20260905021517 75 45 3.5 5.2 0.00 0.00 0.00 92 1013.8
20260905020518 75 45 4.3 6.1 0.00 0.00 0.00 93 1013.5
20260905015517 75 45 4.3 6.1 0.00 0.00 0.00 93 1013.4
20260905014517 76 45 4.3 6.1 0.00 0.00 0.00 93 1013.4
20260905013518 76 23 4.3 5.2 0.00 0.00 0.00 93 1013.3
20260905012517 76 23 3.5 5.2 0.00 0.00 0.00 93 1013.2
20260905011518 77 23 3.5 5.2 0.00 0.00 0.00 93 1013.2
20260905010517 77 23 3.5 5.2 0.00 0.00 0.00 92 1013.1
20260905005517 78 45 3.5 5.2 0.00 0.00 0.00 91 1013.0
20260905004537 79 45 4.3 5.2 0.00 0.00 0.00 90 1013.0
20260905003517 80 45 3.5 4.3 0.00 0.00 0.00 90 1013.0
20260905002517 80 45 3.5 4.3 0.00 0.00 0.00 89 1013.1
20260905001516 81 45 4.3 6.1 0.00 0.00 0.00 88 1012.9
20260905000537 82 45 3.5 5.2 0.00 0.00 0.00 87 1013.0
20260904235516 83 45 4.3 7.8 0.00 0.00 0.00 86 1013.0
20260904234516 84 45 4.3 7.8 0.00 0.00 0.00 85 1013.1